When you browse on this site, cookies collect data to enhance your experience and personalize the content and advertising you see.
Visit our Privacy Policy to learn more. By continuing to use the site, you agree to this use of cookies and data.
  • In Portugal
  • List of Countries
  • For 7 days
  • Water Temperature
  • Weather Map
  • Weather Widgets
  • user-avatar
    Login

    Hourly Weather Ponta Delgada

    Today, 31 March, Tuesday

    Time Temperature Precipitation Wind Pressure Humidity
    00:00 +12°C° 0.1 mm 7 mps 763 mmHg 85%
    01:00 +12°C° 0.1 mm 8 mps 763 mmHg 86%
    02:00 +12°C° 0.1 mm 8 mps 762 mmHg 83%
    03:00 +12°C° 0.1 mm 8 mps 762 mmHg 81%
    04:00 +12°C° 0 mm 8 mps 762 mmHg 80%
    05:00 +12°C° 0 mm 8 mps 763 mmHg 77%
    06:00 +12°C° 0 mm 8 mps 763 mmHg 75%
    07:00 +12°C° 0 mm 8 mps 763 mmHg 72%
    08:00 +12°C° 0 mm 9 mps 763 mmHg 68%
    09:00 +13°C° 0 mm 9 mps 764 mmHg 64%
    10:00 +13°C° 0 mm 10 mps 764 mmHg 60%
    11:00 +13°C° 0 mm 9 mps 764 mmHg 59%
    12:00 +15°C° 0 mm 9 mps 764 mmHg 59%
    13:00 +15°C° 0 mm 9 mps 764 mmHg 58%
    14:00 +13°C° 0 mm 9 mps 763 mmHg 60%
    15:00 +13°C° 0 mm 8 mps 763 mmHg 62%
    16:00 +12°C° 0 mm 8 mps 763 mmHg 64%
    17:00 +12°C° 0 mm 8 mps 763 mmHg 66%
    18:00 +12°C° 0 mm 8 mps 763 mmHg 67%
    19:00 +11°C° 0 mm 8 mps 764 mmHg 68%
    20:00 +11°C° 0 mm 8 mps 764 mmHg 69%
    21:00 +11°C° 0 mm 8 mps 764 mmHg 70%
    22:00 +12°C° 0 mm 8 mps 764 mmHg 71%
    23:00 +11°C° 0 mm 9 mps 763 mmHg 71%

    Tomorrow, 1 April, Wednesday

    Time Temperature Precipitation Wind Pressure Humidity
    00:00 +11°C° 0 mm 9 mps 763 mmHg 70%
    01:00 +11°C° 0 mm 9 mps 762 mmHg 70%
    02:00 +11°C° 0 mm 9 mps 762 mmHg 70%
    03:00 +11°C° 0 mm 9 mps 761 mmHg 70%
    04:00 +11°C° 0 mm 9 mps 761 mmHg 70%
    05:00 +12°C° 0 mm 10 mps 761 mmHg 70%
    06:00 +12°C° 0 mm 10 mps 761 mmHg 70%
    07:00 +12°C° 0 mm 11 mps 761 mmHg 70%
    08:00 +13°C° 0 mm 11 mps 761 mmHg 69%
    09:00 +13°C° 0 mm 12 mps 761 mmHg 69%
    10:00 +13°C° 0 mm 12 mps 761 mmHg 68%
    11:00 +13°C° 0 mm 12 mps 761 mmHg 69%
    12:00 +14°C° 0 mm 12 mps 760 mmHg 70%
    13:00 +14°C° 0 mm 12 mps 760 mmHg 71%
    14:00 +13°C° 0.1 mm 12 mps 759 mmHg 73%
    15:00 +13°C° 0.1 mm 11 mps 759 mmHg 76%
    16:00 +13°C° 0.1 mm 11 mps 759 mmHg 78%
    17:00 +13°C° 0 mm 11 mps 759 mmHg 79%
    18:00 +13°C° 0 mm 11 mps 759 mmHg 80%
    19:00 +13°C° 0 mm 12 mps 760 mmHg 81%
    20:00 +13°C° 0 mm 11 mps 759 mmHg 81%
    21:00 +13°C° 0 mm 11 mps 759 mmHg 82%
    22:00 +13°C° 0 mm 11 mps 759 mmHg 83%
    23:00 +13°C° 0.1 mm 11 mps 758 mmHg 85%

    Day after tomorrow, 2 April, Thursday

    Time Temperature Precipitation Wind Pressure Humidity
    00:00 +13°C° 0.1 mm 11 mps 758 mmHg 87%
    01:00 +13°C° 0.1 mm 11 mps 757 mmHg 89%
    02:00 +13°C° 0.1 mm 11 mps 757 mmHg 89%
    03:00 +13°C° 0.1 mm 11 mps 756 mmHg 90%
    04:00 +14°C° 0.1 mm 12 mps 756 mmHg 90%
    05:00 +14°C° 0.1 mm 12 mps 755 mmHg 90%
    06:00 +14°C° 0.1 mm 12 mps 755 mmHg 90%
    07:00 +14°C° 0.1 mm 12 mps 755 mmHg 91%
    08:00 +15°C° 1.1 mm 12 mps 754 mmHg 92%
    09:00 +15°C° 1.1 mm 12 mps 754 mmHg 93%
    10:00 +15°C° 1.1 mm 12 mps 753 mmHg 94%
    11:00 +17°C° 1.7 mm 12 mps 752 mmHg 94%
    12:00 +17°C° 1.7 mm 12 mps 751 mmHg 93%
    13:00 +17°C° 1.7 mm 11 mps 750 mmHg 93%
    14:00 +17°C° 4 mm 12 mps 749 mmHg 94%
    15:00 +17°C° 4 mm 13 mps 748 mmHg 94%
    16:00 +17°C° 4 mm 13 mps 747 mmHg 95%
    17:00 +17°C° 1.2 mm 11 mps 746 mmHg 94%
    18:00 +17°C° 1.2 mm 9 mps 746 mmHg 94%
    19:00 +17°C° 1.2 mm 7 mps 746 mmHg 93%
    20:00 +16°C° 0.2 mm 7 mps 746 mmHg 93%
    21:00 +16°C° 0.2 mm 6 mps 746 mmHg 92%
    22:00 +16°C° 0.2 mm 6 mps 746 mmHg 92%
    23:00 +16°C° 0.2 mm 6 mps 746 mmHg 92%

    3 April, Friday

    Time Temperature Precipitation Wind Pressure Humidity
    00:00 +16°C° 0.2 mm 6 mps 746 mmHg 93%
    01:00 +16°C° 0.2 mm 6 mps 745 mmHg 93%
    02:00 +16°C° 0.1 mm 6 mps 745 mmHg 93%
    03:00 +16°C° 0.1 mm 6 mps 745 mmHg 93%
    04:00 +16°C° 0.1 mm 6 mps 744 mmHg 93%
    05:00 +16°C° 0.6 mm 6 mps 744 mmHg 91%
    06:00 +16°C° 0.6 mm 6 mps 744 mmHg 90%
    07:00 +16°C° 0.6 mm 6 mps 744 mmHg 88%
    08:00 +17°C° 0.2 mm 7 mps 743 mmHg 87%
    09:00 +17°C° 0.2 mm 8 mps 743 mmHg 86%
    10:00 +17°C° 0.2 mm 9 mps 742 mmHg 85%
    11:00 +17°C° 0.5 mm 9 mps 742 mmHg 87%
    12:00 +17°C° 0.5 mm 10 mps 741 mmHg 89%
    13:00 +17°C° 0.5 mm 11 mps 740 mmHg 91%
    14:00 +17°C° 0.3 mm 11 mps 740 mmHg 89%
    15:00 +16°C° 0.3 mm 11 mps 739 mmHg 87%
    16:00 +16°C° 0.3 mm 11 mps 738 mmHg 85%
    17:00 +16°C° 0.3 mm 11 mps 739 mmHg 87%
    18:00 +16°C° 0.3 mm 10 mps 739 mmHg 89%
    19:00 +16°C° 0.3 mm 10 mps 739 mmHg 91%
    20:00 +15°C° 0.1 mm 12 mps 739 mmHg 89%
    21:00 +15°C° 0.1 mm 14 mps 740 mmHg 88%
    22:00 +15°C° 0.1 mm 15 mps 741 mmHg 87%
    23:00 +15°C° 0 mm 14 mps 741 mmHg 87%

    4 April, Saturday

    Time Temperature Precipitation Wind Pressure Humidity
    00:00 +15°C° 0 mm 13 mps 742 mmHg 88%
    01:00 +15°C° 0 mm 12 mps 742 mmHg 88%
    02:00 +16°C° 0.1 mm 11 mps 743 mmHg 89%
    03:00 +16°C° 0.1 mm 11 mps 744 mmHg 89%
    04:00 +16°C° 0.1 mm 11 mps 744 mmHg 89%
    05:00 +16°C° 0 mm 10 mps 745 mmHg 87%
    06:00 +16°C° 0 mm 10 mps 746 mmHg 85%
    07:00 +16°C° 0 mm 9 mps 746 mmHg 83%
    08:00 +16°C° 0.1 mm 9 mps 747 mmHg 81%
    09:00 +17°C° 0.1 mm 10 mps 747 mmHg 79%
    10:00 +17°C° 0.1 mm 10 mps 748 mmHg 76%
    11:00 +17°C° 0.1 mm 10 mps 748 mmHg 76%
    12:00 +17°C° 0.1 mm 10 mps 748 mmHg 76%
    13:00 +17°C° 0.1 mm 10 mps 749 mmHg 75%
    14:00 +17°C° 0.1 mm 10 mps 749 mmHg 77%
    15:00 +17°C° 0.1 mm 9 mps 749 mmHg 78%
    16:00 +16°C° 0.1 mm 9 mps 750 mmHg 79%
    17:00 +16°C° 0.1 mm 8 mps 750 mmHg 81%
    18:00 +15°C° 0.1 mm 7 mps 751 mmHg 83%
    19:00 +14°C° 0.1 mm 7 mps 752 mmHg 84%
    20:00 +14°C° 0 mm 6 mps 752 mmHg 85%
    21:00 +14°C° 0 mm 6 mps 753 mmHg 85%
    22:00 +14°C° 0 mm 5 mps 753 mmHg 85%
    23:00 +14°C° 0 mm 5 mps 753 mmHg 85%

    5 April, Sunday

    Time Temperature Precipitation Wind Pressure Humidity
    00:00 +14°C° 0 mm 4 mps 753 mmHg 85%
    01:00 +13°C° 0 mm 4 mps 753 mmHg 85%
    02:00 +13°C° 0 mm 4 mps 753 mmHg 85%
    03:00 +13°C° 0 mm 3 mps 754 mmHg 85%
    04:00 +13°C° 0 mm 3 mps 754 mmHg 86%
    05:00 +14°C° 0 mm 2 mps 755 mmHg 84%
    06:00 +15°C° 0 mm 2 mps 755 mmHg 82%
    07:00 +15°C° 0 mm 1 mps 756 mmHg 80%
    08:00 +16°C° 0 mm 1 mps 756 mmHg 76%
    09:00 +18°C° 0 mm 1 mps 756 mmHg 71%
    10:00 +19°C° 0 mm 1 mps 757 mmHg 67%
    11:00 +18°C° 0 mm 2 mps 757 mmHg 70%
    12:00 +17°C° 0 mm 3 mps 757 mmHg 73%
    13:00 +17°C° 0 mm 3 mps 757 mmHg 77%
    14:00 +17°C° 0 mm 4 mps 757 mmHg 79%
    15:00 +17°C° 0 mm 4 mps 757 mmHg 81%
    16:00 +16°C° 0 mm 5 mps 757 mmHg 83%
    17:00 +16°C° 0.4 mm 5 mps 757 mmHg 86%
    18:00 +16°C° 0.4 mm 5 mps 757 mmHg 89%
    19:00 +16°C° 0.4 mm 5 mps 757 mmHg 92%
    20:00 +16°C° 0.5 mm 6 mps 757 mmHg 93%
    21:00 +16°C° 0.5 mm 6 mps 757 mmHg 93%
    22:00 +16°C° 0.5 mm 7 mps 757 mmHg 93%
    23:00 +16°C° 0.2 mm 7 mps 756 mmHg 94%
    Show more